QPF
0.07 0.07 0.08 0.08 0.09 0.11 0.15 0.18 0.22 0.23 0.20 0.17 0.16 0.22 0.20 0.17 0.14 0.11 0.06 0.04 0.03 0.02 0.03 0.03 0.03 0.02 0.01 0.00 0.00 0.00 0.00 0.00 0.00 0.01 0.02 0.03 0.04 0.06 0.06 0.05 0.07 0.08 0.06
0.05 0.04 0.06 0.10 0.10 0.12 0.16 0.18 0.21 0.22 0.18 0.17 0.17 0.17 0.17 0.17 0.12 0.09 0.07 0.05 0.03 0.02 0.02 0.02 0.02 0.02 0.02 0.01 0.01 0.00 0.00 0.00 0.00 0.00 0.01 0.01 0.03 0.04 0.05 0.05 0.05 0.07 0.05
0.04 0.04 0.06 0.14 0.16 0.12 0.14 0.13 0.12 0.15 0.15 0.19 0.22 0.21 0.20 0.20 0.17 0.12 0.10 0.06 0.03 0.02 0.03 0.03 0.02 0.03 0.02 0.01 0.01 0.00 0.00 0.00 0.00 0.01 0.01 0.01 0.01 0.01 0.03 0.05 0.05 0.04 0.03
0.03 0.04 0.04 0.05 0.09 0.10 0.12 0.10 0.09 0.10 0.12 0.17 0.16 0.13 0.11 0.10 0.09 0.09 0.08 0.07 0.05 0.04 0.04 0.03 0.03 0.02 0.01 0.01 0.00 0.00 0.00 0.00 0.00 0.01 0.01 0.01 0.00 0.00 0.01 0.03 0.03 0.03 0.02
0.03 0.03 0.03 0.03 0.04 0.06 0.08 0.08 0.08 0.09 0.11 0.12 0.11 0.11 0.11 0.11 0.12 0.13 0.13 0.10 0.10 0.07 0.04 0.03 0.03 0.02 0.01 0.01 0.00 0.00 0.00 0.00 0.00 0.00 0.00 0.00 0.00 0.00 0.00 0.01 0.01 0.01 0.01
0.03 0.03 0.03 0.03 0.03 0.04 0.06 0.09 0.09 0.09 0.10 0.11 0.10 0.10 0.11 0.11 0.13 0.13 0.11 0.08 0.06 0.05 0.05 0.04 0.03 0.02 0.01 0.01 0.01 0.00 0.00 0.00 0.00 0.00 0.00 0.00 0.00 0.00 0.00 0.00 0.00 0.00 0.00
0.05 0.05 0.02 0.03 0.03 0.03 0.05 0.07 0.09 0.10 0.10 0.10 0.08 0.08 0.10 0.11 0.11 0.11 0.09 0.07 0.05 0.03 0.03 0.03 0.03 0.02 0.01 0.01 0.01 0.01 0.01 0.00 0.00 0.00 0.00 0.00 0.00 0.00 0.00 0.01 0.00 0.00 0.00
0.03 0.02 0.01 0.02 0.02 0.03 0.05 0.07 0.09 0.10 0.09 0.10 0.10 0.09 0.10 0.11 0.13 0.14 0.11 0.07 0.06 0.05 0.04 0.04 0.03 0.02 0.01 0.01 0.01 0.01 0.00 0.00 0.00 0.00 0.00 0.00 0.00 0.00 0.00 0.00 0.00 0.00 0.00
0.02 0.01 0.01 0.01 0.02 0.03 0.05 0.09 0.09 0.09 0.09 0.11 0.11 0.09 0.09 0.11 0.13 0.15 0.12 0.09 0.07 0.07 0.06 0.05 0.04 0.03 0.03 0.01 0.01 0.00 0.00 0.00 0.00 0.00 0.00 0.00 0.00 0.00 0.00 0.00 0.00 0.00 0.00
0.03 0.02 0.01 0.00 0.02 0.04 0.06 0.09 0.10 0.07 0.08 0.11 0.11 0.10 0.10 0.11 0.11 0.11 0.12 0.10 0.07 0.06 0.07 0.07 0.06 0.05 0.04 0.02 0.01 0.00 0.00 0.00 0.00 0.00 0.00 0.00 0.00 0.00 0.00 0.00 0.00 0.00 0.00
0.04 0.03 0.01 0.00 0.01 0.03 0.04 0.06 0.08 0.08 0.07 0.07 0.08 0.08 0.10 0.13 0.12 0.10 0.10 0.10 0.08 0.07 0.07 0.07 0.06 0.05 0.04 0.04 0.03 0.02 0.01 0.01 0.00 0.00 0.00 0.01 0.00 0.00 0.00 0.00 0.00 0.00 0.00
0.08 0.03 0.02 0.01 0.01 0.02 0.03 0.05 0.06 0.07 0.07 0.06 0.06 0.06 0.07 0.08 0.11 0.11 0.12 0.09 0.07 0.08 0.07 0.07 0.07 0.08 0.08 0.07 0.06 0.05 0.04 0.02 0.02 0.01 0.01 0.01 0.01 0.01 0.01 0.01 0.00 0.00 0.01
0.12 0.06 0.04 0.03 0.02 0.02 0.03 0.04 0.05 0.06 0.07 0.06 0.06 0.06 0.05 0.06 0.09 0.11 0.11 0.09 0.07 0.08 0.09 0.08 0.08 0.09 0.11 0.12 0.11 0.10 0.08 0.05 0.04 0.03 0.02 0.02 0.02 0.02 0.02 0.02 0.02 0.01 0.01
0.07 0.05 0.04 0.04 0.03 0.02 0.03 0.04 0.07 0.06 0.05 0.04 0.04 0.05 0.05 0.05 0.08 0.10 0.11 0.11 0.10 0.10 0.12 0.12 0.12 0.12 0.11 0.11 0.10 0.11 0.10 0.07 0.05 0.05 0.04 0.03 0.03 0.03 0.03 0.03 0.03 0.02 0.02
0.09 0.06 0.03 0.02 0.02 0.02 0.02 0.04 0.07 0.06 0.06 0.06 0.07 0.07 0.06 0.07 0.09 0.13 0.12 0.12 0.11 0.11 0.12 0.12 0.12 0.13 0.15 0.14 0.14 0.14 0.13 0.10 0.09 0.08 0.06 0.04 0.04 0.04 0.04 0.03 0.02 0.02 0.02
0.09 0.09 0.05 0.02 0.02 0.02 0.02 0.03 0.05 0.05 0.07 0.14 0.16 0.12 0.10 0.13 0.15 0.16 0.15 0.16 0.16 0.14 0.12 0.10 0.10 0.13 0.15 0.16 0.16 0.15 0.13 0.11 0.10 0.09 0.07 0.05 0.04 0.04 0.03 0.02 0.02 0.02 0.01
0.15 0.13 0.07 0.04 0.03 0.02 0.02 0.02 0.03 0.04 0.05 0.07 0.12 0.15 0.13 0.16 0.22 0.23 0.20 0.20 0.19 0.16 0.14 0.13 0.11 0.10 0.11 0.11 0.10 0.10 0.09 0.08 0.08 0.08 0.07 0.05 0.03 0.03 0.02 0.02 0.02 0.02 0.02
0.19 0.20 0.13 0.07 0.06 0.05 0.04 0.04 0.05 0.06 0.07 0.08 0.11 0.14 0.15 0.16 0.20 0.21 0.20 0.16 0.14 0.12 0.11 0.10 0.08 0.07 0.05 0.04 0.03 0.04 0.04 0.04 0.05 0.05 0.04 0.03 0.03 0.02 0.02 0.01 0.01 0.01 0.01
0.14 0.18 0.18 0.11 0.10 0.10 0.09 0.09 0.10 0.11 0.12 0.14 0.14 0.16 0.18 0.18 0.18 0.20 0.19 0.13 0.11 0.09 0.08 0.08 0.07 0.05 0.03 0.03 0.03 0.03 0.03 0.03 0.03 0.03 0.03 0.02 0.02 0.02 0.01 0.01 0.01 0.01 0.01
0.16 0.18 0.21 0.22 0.18 0.17 0.15 0.11 0.11 0.11 0.13 0.13 0.13 0.16 0.18 0.17 0.17 0.15 0.14 0.12 0.11 0.11 0.12 0.12 0.08 0.05 0.03 0.02 0.02 0.02 0.02 0.02 0.02 0.02 0.02 0.02 0.02 0.01 0.01 0.01 0.02 0.02 0.02
0.14 0.15 0.17 0.21 0.21 0.20 0.18 0.17 0.14 0.12 0.13 0.14 0.14 0.16 0.17 0.16 0.15 0.14 0.13 0.13 0.13 0.13 0.11 0.08 0.07 0.06 0.05 0.05 0.04 0.02 0.01 0.01 0.01 0.01 0.01 0.01 0.01 0.00 0.00 0.00 0.00 0.01 0.01
0.13 0.15 0.17 0.18 0.23 0.25 0.25 0.24 0.20 0.18 0.18 0.18 0.19 0.21 0.22 0.19 0.15 0.13 0.14 0.15 0.16 0.15 0.12 0.08 0.06 0.05 0.06 0.06 0.06 0.05 0.03 0.02 0.01 0.01 0.00 0.00 0.00 0.00 0.00 0.00 0.00 0.00 0.00
0.10 0.10 0.12 0.14 0.18 0.24 0.25 0.25 0.22 0.23 0.23 0.21 0.22 0.22 0.22 0.20 0.17 0.13 0.12 0.12 0.11 0.09 0.07 0.05 0.04 0.04 0.03 0.02 0.02 0.02 0.02 0.01 0.00 0.00 0.00 0.00 0.00 0.00 0.00 0.00 0.00 0.00 0.00
0.05 0.07 0.09 0.09 0.10 0.12 0.14 0.18 0.17 0.19 0.21 0.19 0.15 0.12 0.10 0.09 0.10 0.10 0.08 0.07 0.07 0.06 0.06 0.05 0.04 0.03 0.02 0.01 0.00 0.00 0.01 0.01 0.01 0.00 0.00 0.00 0.00 0.00 0.00 0.00 0.00 0.00 0.00
0.07 0.08 0.08 0.08 0.08 0.08 0.08 0.10 0.11 0.13 0.13 0.12 0.10 0.08 0.07 0.06 0.07 0.07 0.07 0.06 0.06 0.05 0.04 0.03 0.02 0.01 0.01 0.01 0.01 0.00 0.00 0.00 0.00 0.00 0.00 0.00 0.00 0.00 0.00 0.00 0.00 0.00 0.00
0.08 0.08 0.07 0.07 0.07 0.08 0.10 0.12 0.12 0.10 0.10 0.09 0.08 0.08 0.07 0.07 0.08 0.08 0.09 0.08 0.06 0.05 0.03 0.02 0.01 0.01 0.00 0.00 0.00 0.00 0.00 0.00 0.00 0.00 0.00 0.00 0.00 0.00 0.00 0.00 0.00 0.00 0.00
MSLP
1007.13 1007.44 1007.73 1008.00 1008.23 1008.47 1008.72 1009.05 1009.46 1009.98 1010.57 1011.21 1011.85 1012.44 1012.93 1013.32 1013.60 1013.79 1013.94 1014.07 1014.24 1014.46 1014.74 1015.08 1015.46 1015.86 1016.27 1016.66 1017.06 1017.45 1017.84 1018.24 1018.63 1019.00 1019.32 1019.55 1019.66 1019.66 1019.53 1019.30 1019.03 1018.75 1018.53
1007.34 1007.62 1007.88 1008.08 1008.25 1008.39 1008.58 1008.86 1009.26 1009.80 1010.46 1011.18 1011.90 1012.56 1013.10 1013.49 1013.74 1013.87 1013.94 1014.01 1014.12 1014.32 1014.61 1014.98 1015.41 1015.85 1016.29 1016.70 1017.09 1017.45 1017.80 1018.16 1018.53 1018.88 1019.21 1019.47 1019.63 1019.67 1019.58 1019.39 1019.12 1018.84 1018.58
1007.55 1007.83 1008.08 1008.25 1008.36 1008.44 1008.56 1008.78 1009.16 1009.71 1010.40 1011.18 1011.97 1012.69 1013.27 1013.68 1013.92 1014.02 1014.05 1014.07 1014.15 1014.32 1014.61 1014.99 1015.44 1015.90 1016.35 1016.75 1017.11 1017.43 1017.74 1018.05 1018.38 1018.72 1019.06 1019.35 1019.57 1019.68 1019.66 1019.52 1019.29 1019.01 1018.74
1007.78 1008.08 1008.33 1008.50 1008.58 1008.62 1008.68 1008.85 1009.18 1009.70 1010.39 1011.19 1012.01 1012.78 1013.40 1013.84 1014.09 1014.19 1014.21 1014.22 1014.28 1014.44 1014.72 1015.10 1015.55 1016.01 1016.44 1016.82 1017.14 1017.42 1017.67 1017.94 1018.24 1018.57 1018.92 1019.25 1019.53 1019.70 1019.76 1019.69 1019.51 1019.25 1018.96
1008.02 1008.35 1008.64 1008.83 1008.91 1008.92 1008.94 1009.04 1009.30 1009.77 1010.41 1011.18 1012.00 1012.78 1013.43 1013.90 1014.19 1014.32 1014.36 1014.38 1014.45 1014.61 1014.89 1015.27 1015.71 1016.15 1016.56 1016.91 1017.20 1017.43 1017.64 1017.87 1018.14 1018.46 1018.82 1019.18 1019.50 1019.74 1019.86 1019.84 1019.71 1019.48 1019.20
1008.25 1008.64 1008.99 1009.22 1009.31 1009.31 1009.28 1009.32 1009.50 1009.86 1010.42 1011.13 1011.91 1012.67 1013.33 1013.83 1014.16 1014.34 1014.43 1014.49 1014.59 1014.78 1015.06 1015.44 1015.86 1016.29 1016.68 1017.01 1017.26 1017.46 1017.65 1017.85 1018.10 1018.40 1018.76 1019.13 1019.47 1019.75 1019.91 1019.95 1019.86 1019.66 1019.39
1008.46 1008.91 1009.32 1009.60 1009.74 1009.74 1009.67 1009.64 1009.72 1009.97 1010.42 1011.02 1011.72 1012.43 1013.08 1013.60 1013.98 1014.22 1014.37 1014.50 1014.65 1014.88 1015.18 1015.56 1015.98 1016.40 1016.77 1017.08 1017.31 1017.50 1017.67 1017.85 1018.08 1018.38 1018.72 1019.08 1019.43 1019.72 1019.90 1019.97 1019.90 1019.73 1019.48
1008.61 1009.11 1009.59 1009.94 1010.11 1010.13 1010.04 1009.95 1009.94 1010.08 1010.39 1010.87 1011.47 1012.11 1012.72 1013.25 1013.66 1013.97 1014.20 1014.39 1014.61 1014.88 1015.22 1015.61 1016.03 1016.43 1016.80 1017.10 1017.33 1017.52 1017.69 1017.86 1018.09 1018.36 1018.69 1019.03 1019.36 1019.63 1019.82 1019.88 1019.84 1019.69 1019.47
1008.66 1009.22 1009.76 1010.17 1010.40 1010.44 1010.36 1010.23 1010.14 1010.18 1010.37 1010.73 1011.22 1011.77 1012.33 1012.85 1013.29 1013.64 1013.94 1014.20 1014.48 1014.80 1015.17 1015.57 1015.99 1016.40 1016.76 1017.07 1017.31 1017.51 1017.69 1017.88 1018.10 1018.36 1018.66 1018.97 1019.26 1019.51 1019.67 1019.74 1019.70 1019.58 1019.40
1008.63 1009.23 1009.82 1010.28 1010.57 1010.66 1010.60 1010.47 1010.34 1010.31 1010.42 1010.67 1011.05 1011.52 1012.02 1012.51 1012.94 1013.33 1013.67 1013.99 1014.32 1014.67 1015.06 1015.48 1015.91 1016.31 1016.68 1016.99 1017.25 1017.47 1017.68 1017.88 1018.11 1018.37 1018.64 1018.92 1019.18 1019.39 1019.52 1019.58 1019.56 1019.47 1019.33
1008.53 1009.15 1009.78 1010.29 1010.63 1010.79 1010.78 1010.69 1010.57 1010.52 1010.57 1010.75 1011.05 1011.44 1011.87 1012.31 1012.73 1013.12 1013.48 1013.83 1014.19 1014.56 1014.96 1015.38 1015.80 1016.21 1016.58 1016.91 1017.19 1017.44 1017.68 1017.91 1018.16 1018.42 1018.68 1018.93 1019.16 1019.34 1019.45 1019.50 1019.49 1019.42 1019.33
1008.43 1009.06 1009.69 1010.24 1010.63 1010.86 1010.93 1010.90 1010.85 1010.82 1010.87 1011.02 1011.26 1011.58 1011.95 1012.33 1012.71 1013.07 1013.43 1013.78 1014.14 1014.52 1014.91 1015.33 1015.74 1016.14 1016.51 1016.86 1017.17 1017.45 1017.72 1017.99 1018.27 1018.54 1018.81 1019.05 1019.26 1019.42 1019.51 1019.56 1019.55 1019.52 1019.47
1008.39 1009.00 1009.62 1010.17 1010.60 1010.89 1011.05 1011.12 1011.15 1011.19 1011.27 1011.42 1011.64 1011.91 1012.22 1012.54 1012.87 1013.19 1013.52 1013.85 1014.19 1014.56 1014.95 1015.35 1015.75 1016.15 1016.53 1016.88 1017.21 1017.53 1017.84 1018.15 1018.46 1018.76 1019.05 1019.30 1019.51 1019.66 1019.75 1019.79 1019.80 1019.79 1019.77
1008.47 1009.02 1009.59 1010.11 1010.55 1010.89 1011.13 1011.30 1011.43 1011.56 1011.71 1011.89 1012.10 1012.35 1012.61 1012.88 1013.15 1013.43 1013.71 1014.02 1014.34 1014.70 1015.07 1015.46 1015.86 1016.25 1016.63 1017.00 1017.36 1017.71 1018.06 1018.41 1018.76 1019.10 1019.41 1019.68 1019.90 1020.06 1020.16 1020.20 1020.22 1020.21 1020.21
1008.66 1009.11 1009.59 1010.05 1010.46 1010.82 1011.12 1011.37 1011.60 1011.82 1012.05 1012.27 1012.51 1012.75 1012.98 1013.22 1013.45 1013.69 1013.95 1014.23 1014.55 1014.90 1015.27 1015.66 1016.06 1016.46 1016.85 1017.23 1017.60 1017.98 1018.37 1018.75 1019.14 1019.52 1019.86 1020.17 1020.41 1020.59 1020.69 1020.75 1020.76 1020.75 1020.75
1008.93 1009.25 1009.59 1009.94 1010.28 1010.61 1010.93 1011.24 1011.54 1011.85 1012.15 1012.44 1012.71 1012.97 1013.20 1013.43 1013.65 1013.88 1014.14 1014.43 1014.76 1015.12 1015.52 1015.93 1016.34 1016.76 1017.16 1017.55 1017.95 1018.34 1018.75 1019.17 1019.59 1019.99 1020.38 1020.71 1020.98 1021.18 1021.30 1021.36 1021.37 1021.35 1021.32
1009.20 1009.36 1009.53 1009.73 1009.95 1010.21 1010.51 1010.83 1011.18 1011.55 1011.92 1012.27 1012.60 1012.90 1013.17 1013.43 1013.68 1013.95 1014.24 1014.58 1014.95 1015.36 1015.80 1016.25 1016.70 1017.13 1017.56 1017.96 1018.37 1018.78 1019.19 1019.62 1020.06 1020.49 1020.89 1021.25 1021.54 1021.76 1021.90 1021.96 1021.96 1021.93 1021.87
1009.39 1009.36 1009.35 1009.36 1009.44 1009.59 1009.82 1010.12 1010.49 1010.90 1011.33 1011.75 1012.15 1012.53 1012.87 1013.20 1013.53 1013.88 1014.26 1014.67 1015.13 1015.62 1016.13 1016.63 1017.12 1017.59 1018.03 1018.45 1018.85 1019.26 1019.67 1020.10 1020.53 1020.96 1021.38 1021.75 1022.06 1022.29 1022.43 1022.50 1022.50 1022.45 1022.38
1009.46 1009.24 1009.02 1008.86 1008.77 1008.79 1008.93 1009.18 1009.54 1009.98 1010.46 1010.96 1011.45 1011.93 1012.39 1012.84 1013.29 1013.75 1014.25 1014.78 1015.35 1015.93 1016.52 1017.09 1017.62 1018.12 1018.57 1018.99 1019.38 1019.77 1020.16 1020.56 1020.98 1021.40 1021.80 1022.17 1022.48 1022.72 1022.88 1022.95 1022.96 1022.90 1022.81
1009.40 1009.01 1008.62 1008.28 1008.03 1007.93 1007.97 1008.17 1008.51 1008.97 1009.50 1010.08 1010.68 1011.28 1011.88 1012.47 1013.07 1013.69 1014.32 1014.98 1015.66 1016.34 1017.01 1017.63 1018.21 1018.72 1019.18 1019.59 1019.95 1020.31 1020.66 1021.03 1021.41 1021.79 1022.17 1022.53 1022.83 1023.08 1023.24 1023.33 1023.34 1023.29 1023.20
1009.29 1008.76 1008.23 1007.76 1007.39 1007.18 1007.14 1007.29 1007.62 1008.10 1008.68 1009.35 1010.06 1010.79 1011.54 1012.28 1013.04 1013.80 1014.58 1015.36 1016.14 1016.90 1017.62 1018.29 1018.88 1019.40 1019.84 1020.22 1020.56 1020.87 1021.18 1021.49 1021.82 1022.17 1022.51 1022.84 1023.13 1023.37 1023.54 1023.64 1023.67 1023.64 1023.57
1009.24 1008.64 1008.02 1007.46 1007.02 1006.73 1006.65 1006.77 1007.09 1007.59 1008.23 1008.98 1009.79 1010.65 1011.52 1012.41 1013.30 1014.19 1015.08 1015.95 1016.80 1017.61 1018.36 1019.03 1019.62 1020.12 1020.54 1020.89 1021.18 1021.44 1021.70 1021.96 1022.24 1022.54 1022.84 1023.13 1023.40 1023.63 1023.81 1023.92 1023.97 1023.97 1023.93
1009.38 1008.76 1008.12 1007.54 1007.07 1006.76 1006.66 1006.77 1007.10 1007.62 1008.30 1009.11 1010.00 1010.96 1011.94 1012.93 1013.91 1014.89 1015.84 1016.76 1017.63 1018.45 1019.19 1019.84 1020.40 1020.86 1021.24 1021.55 1021.80 1022.02 1022.23 1022.44 1022.67 1022.92 1023.18 1023.44 1023.69 1023.90 1024.08 1024.20 1024.28 1024.31 1024.30
1009.81 1009.23 1008.63 1008.08 1007.63 1007.34 1007.24 1007.36 1007.70 1008.24 1008.95 1009.79 1010.73 1011.73 1012.76 1013.80 1014.83 1015.83 1016.79 1017.71 1018.56 1019.34 1020.04 1020.65 1021.16 1021.58 1021.91 1022.18 1022.40 1022.58 1022.75 1022.93 1023.12 1023.33 1023.55 1023.78 1024.00 1024.20 1024.37 1024.51 1024.60 1024.66 1024.67
1010.57 1010.07 1009.56 1009.08 1008.69 1008.45 1008.39 1008.52 1008.86 1009.40 1010.10 1010.94 1011.87 1012.87 1013.90 1014.93 1015.94 1016.91 1017.84 1018.70 1019.50 1020.22 1020.85 1021.40 1021.85 1022.22 1022.52 1022.76 1022.95 1023.11 1023.27 1023.42 1023.58 1023.76 1023.95 1024.14 1024.34 1024.52 1024.69 1024.83 1024.93 1025.01 1025.04
1011.62 1011.24 1010.84 1010.46 1010.16 1009.98 1009.95 1010.09 1010.42 1010.93 1011.59 1012.38 1013.27 1014.21 1015.18 1016.14 1017.09 1017.99 1018.84 1019.63 1020.34 1020.99 1021.55 1022.04 1022.44 1022.78 1023.06 1023.28 1023.46 1023.62 1023.76 1023.90 1024.05 1024.20 1024.36 1024.53 1024.70 1024.87 1025.02 1025.16 1025.27 1025.35 1025.39
Thickness
5784 5783 5779 5774 5768 5762 5758 5754 5750 5747 5745 5743 5741 5738 5737 5739 5740 5742 5743 5744 5744 5745 5744 5742 5740 5740 5738 5736 5735 5733 5731 5729 5728 5724 5720 5721 5723 5723 5723 5722 5722 5721 5720
5778 5777 5774 5771 5766 5760 5756 5752 5749 5747 5745 5744 5742 5740 5738 5736 5738 5739 5741 5742 5742 5742 5742 5741 5739 5738 5736 5735 5734 5733 5729 5728 5727 5722 5715 5711 5714 5720 5724 5723 5722 5722 5721
5778 5775 5772 5768 5764 5760 5757 5754 5750 5747 5746 5744 5740 5737 5734 5733 5732 5734 5736 5739 5740 5740 5740 5739 5738 5737 5736 5733 5733 5732 5729 5725 5725 5725 5718 5709 5706 5712 5719 5722 5723 5723 5722
5780 5775 5772 5767 5763 5761 5758 5755 5752 5749 5746 5743 5740 5736 5732 5729 5731 5734 5735 5736 5737 5737 5738 5737 5737 5736 5735 5733 5733 5732 5730 5726 5722 5723 5724 5721 5719 5712 5711 5718 5722 5723 5723
5779 5775 5772 5769 5765 5762 5758 5755 5751 5748 5746 5743 5741 5736 5733 5732 5732 5732 5731 5732 5733 5735 5735 5735 5735 5734 5733 5732 5732 5731 5729 5727 5724 5722 5722 5721 5720 5718 5713 5710 5715 5719 5723
5778 5774 5771 5767 5762 5760 5756 5753 5749 5746 5745 5742 5740 5737 5733 5731 5729 5728 5727 5728 5729 5731 5733 5733 5732 5732 5731 5730 5730 5729 5728 5726 5725 5723 5722 5720 5718 5716 5714 5711 5711 5713 5719
5774 5770 5767 5762 5759 5756 5753 5750 5747 5744 5742 5740 5738 5736 5734 5732 5730 5728 5727 5726 5726 5727 5729 5730 5729 5729 5729 5728 5728 5727 5726 5725 5723 5722 5721 5720 5720 5720 5717 5713 5711 5711 5715
5772 5770 5767 5763 5759 5755 5752 5749 5745 5742 5740 5738 5737 5736 5734 5732 5730 5729 5727 5726 5727 5727 5728 5728 5727 5727 5726 5725 5724 5723 5722 5722 5721 5721 5720 5719 5718 5719 5718 5715 5711 5706 5707
5770 5768 5765 5762 5758 5754 5751 5748 5744 5740 5738 5737 5735 5734 5733 5731 5729 5728 5727 5726 5726 5726 5725 5725 5724 5723 5723 5722 5721 5719 5718 5718 5717 5717 5717 5716 5716 5716 5716 5716 5713 5706 5699
5767 5764 5762 5760 5757 5754 5751 5747 5743 5740 5737 5735 5733 5732 5731 5729 5728 5727 5725 5724 5724 5724 5722 5721 5721 5720 5719 5718 5716 5715 5715 5714 5713 5713 5712 5712 5712 5712 5712 5711 5709 5707 5702
5763 5761 5758 5757 5755 5752 5748 5744 5741 5738 5735 5734 5732 5730 5729 5727 5726 5725 5724 5722 5721 5721 5719 5718 5716 5715 5714 5713 5712 5710 5710 5709 5708 5708 5708 5707 5707 5706 5705 5705 5703 5701 5699
5762 5760 5757 5754 5751 5748 5745 5742 5739 5737 5734 5732 5729 5728 5726 5725 5723 5722 5722 5720 5719 5717 5716 5714 5712 5711 5710 5709 5707 5705 5705 5704 5703 5702 5702 5701 5701 5699 5698 5697 5696 5695 5694
5762 5758 5754 5750 5748 5746 5743 5740 5737 5735 5732 5730 5727 5725 5723 5722 5720 5719 5718 5716 5715 5713 5712 5710 5708 5706 5705 5704 5703 5701 5701 5699 5698 5696 5695 5694 5694 5691 5690 5689 5688 5687 5687
5759 5755 5751 5748 5746 5744 5741 5739 5736 5734 5731 5728 5725 5722 5721 5719 5718 5716 5714 5712 5711 5709 5707 5705 5703 5701 5700 5699 5698 5697 5695 5693 5690 5689 5688 5687 5686 5684 5683 5681 5679 5678 5677
5755 5754 5751 5748 5746 5743 5740 5737 5735 5733 5731 5727 5723 5721 5718 5717 5715 5713 5711 5708 5706 5704 5701 5699 5696 5695 5694 5694 5693 5692 5689 5685 5682 5680 5679 5678 5678 5677 5675 5673 5670 5669 5666
5753 5753 5751 5749 5746 5743 5740 5737 5734 5732 5729 5725 5722 5719 5716 5713 5710 5708 5706 5703 5699 5696 5693 5691 5689 5688 5688 5687 5687 5685 5681 5678 5674 5670 5668 5667 5666 5666 5664 5663 5661 5659 5655
5751 5751 5751 5749 5746 5744 5741 5737 5734 5730 5726 5722 5720 5717 5714 5710 5707 5704 5699 5696 5692 5689 5685 5682 5681 5679 5678 5679 5679 5677 5672 5667 5663 5660 5658 5657 5654 5653 5651 5649 5648 5645 5643
5746 5747 5747 5746 5744 5741 5739 5736 5731 5727 5723 5719 5716 5713 5710 5706 5702 5698 5693 5688 5684 5681 5677 5673 5671 5669 5667 5668 5667 5665 5661 5656 5651 5648 5645 5642 5640 5639 5638 5636 5633 5630 5628
5739 5740 5740 5740 5738 5736 5734 5730 5726 5722 5718 5715 5712 5710 5707 5702 5697 5691 5686 5681 5677 5671 5667 5663 5660 5658 5655 5655 5654 5653 5648 5642 5637 5634 5632 5630 5627 5625 5625 5622 5618 5615 5613
5731 5731 5731 5730 5727 5726 5726 5722 5718 5715 5712 5709 5707 5704 5701 5696 5690 5684 5679 5673 5668 5662 5657 5652 5648 5647 5643 5642 5641 5639 5635 5629 5624 5620 5618 5616 5614 5612 5610 5606 5602 5598 5595
5719 5721 5720 5719 5718 5718 5717 5712 5708 5705 5703 5701 5698 5694 5691 5686 5680 5674 5669 5663 5657 5651 5645 5639 5635 5633 5630 5628 5627 5625 5622 5616 5612 5607 5604 5602 5600 5598 5595 5591 5587 5582 5580
5706 5708 5707 5707 5708 5708 5707 5702 5697 5696 5693 5690 5686 5682 5678 5674 5669 5663 5656 5651 5646 5640 5633 5628 5622 5618 5615 5613 5611 5610 5607 5603 5599 5594 5590 5587 5585 5583 5579 5575 5571 5568 5564
5691 5693 5694 5693 5694 5694 5695 5691 5687 5685 5681 5677 5672 5668 5664 5660 5656 5651 5645 5639 5634 5629 5621 5615 5609 5603 5600 5597 5597 5595 5592 5589 5584 5580 5577 5573 5570 5567 5562 5558 5554 5549 5544
5678 5679 5679 5678 5678 5679 5680 5679 5676 5673 5670 5664 5659 5654 5649 5644 5640 5636 5632 5627 5622 5616 5609 5602 5595 5590 5586 5583 5581 5579 5577 5574 5570 5565 5562 5558 5554 5549 5544 5539 5535 5530 5524
5664 5665 5664 5663 5663 5664 5663 5663 5662 5659 5655 5649 5644 5638 5633 5628 5623 5617 5613 5611 5607 5604 5598 5590 5585 5579 5574 5570 5569 5566 5562 5559 5554 5550 5545 5540 5534 5528 5523 5519 5514 5509 5505
5652 5651 5650 5650 5649 5649 5648 5648 5647 5646 5642 5635 5628 5623 5619 5614 5609 5603 5595 5591 5590 5586 5583 5579 5574 5568 5564 5559 5556 5553 5549 5545 5540 5534 5525 5519 5514 5508 5502 5497 5493 5488 5484